Theta_e
323 323 324 324 326 328 329 329 330 330 330 330 330 330 331 331 331 331 331 331 331 330 330 331 331 331 331 331 332 332 332 332 331 332 331 332 331 330 330 330 328 327
322 322 322 323 323 324 326 327 328 329 329 329 329 329 330 331 331 331 331 331 331 330 330 330 330 330 330 331 332 332 332 332 331 331 331 331 331 331 330 329 327 326
322 322 322 322 322 322 323 324 325 327 328 329 329 330 330 330 330 330 330 330 330 330 330 330 330 330 330 330 331 331 331 331 330 330 331 331 330 330 330 328 327 326
319 320 321 321 321 322 323 323 324 324 326 328 329 330 330 330 330 330 330 330 330 329 329 329 329 329 330 330 330 330 330 330 329 329 330 330 330 330 329 328 327 327
317 318 319 320 320 322 323 323 323 324 325 326 327 328 329 329 329 330 330 329 329 329 328 328 329 329 330 329 329 329 330 330 330 329 329 329 330 330 330 328 328 328
316 316 317 317 318 319 320 322 323 324 324 324 324 325 326 328 328 328 329 329 328 328 327 327 328 328 329 328 328 329 329 330 330 329 329 329 329 330 330 329 329 328
315 315 315 315 316 317 318 320 322 322 323 323 323 324 324 326 328 328 328 328 328 327 326 326 327 328 327 327 328 329 329 330 329 329 329 329 328 328 329 329 328 327
314 314 314 314 314 315 316 318 320 321 322 323 323 324 324 325 327 327 327 327 326 325 325 325 326 327 326 326 327 329 330 330 329 329 328 328 329 329 328 329 328 327
314 313 313 313 313 313 314 316 319 320 322 323 324 324 325 325 325 325 325 324 324 324 325 325 326 327 327 327 328 329 330 330 329 329 328 328 329 329 329 329 329 328
313 313 313 312 312 312 312 314 317 319 321 323 324 324 325 325 325 324 324 324 325 326 326 327 327 327 327 328 328 328 329 330 329 329 328 329 330 329 329 329 329 329
312 312 312 312 311 311 311 312 315 318 320 321 323 324 324 324 324 324 324 325 326 327 328 328 328 328 328 328 329 329 329 329 328 327 328 328 328 328 329 329 329 329
312 312 312 311 311 311 310 311 314 317 318 319 321 323 323 324 324 323 323 324 326 327 328 328 328 328 328 328 328 328 328 328 327 327 327 326 326 327 327 328 328 329
311 311 311 311 310 310 310 310 312 314 316 317 318 321 322 323 323 323 322 323 325 326 327 328 327 327 326 326 327 328 328 327 327 327 327 326 326 326 327 327 328 329
310 310 310 310 310 310 309 309 309 311 314 315 316 318 319 320 321 322 322 323 325 325 325 325 324 323 323 324 326 327 327 327 326 326 326 325 325 325 325 326 327 328
309 309 309 309 309 309 308 308 308 309 311 312 313 314 316 317 318 320 322 323 324 324 324 324 322 320 320 323 325 326 326 327 327 326 325 324 324 324 324 323 325 327
308 308 308 308 308 308 307 307 307 307 308 309 310 311 312 314 315 317 319 321 322 323 323 323 322 320 320 323 325 326 325 325 326 326 326 325 324 324 323 323 324 326
307 307 307 307 307 307 307 307 306 306 306 306 307 308 309 310 311 313 315 317 318 320 321 322 322 321 321 321 324 325 325 325 325 325 325 325 324 323 323 323 324 325
306 306 306 306 306 306 306 306 306 306 306 305 306 306 307 308 309 309 311 313 314 316 318 319 320 321 322 322 323 324 325 325 324 323 323 323 324 324 323 324 325 325
306 306 306 305 305 305 305 305 305 305 305 305 305 305 305 306 306 307 308 309 310 311 313 315 317 319 321 322 323 324 324 323 322 321 321 323 324 324 324 325 326 326
305 305 305 305 305 304 304 304 304 304 304 304 305 305 305 305 305 305 306 306 307 308 309 310 312 314 317 320 322 323 323 323 322 321 322 323 325 325 325 326 326 325
304 304 305 305 304 304 304 304 304 303 303 303 303 304 304 304 304 304 304 304 305 305 306 307 308 310 312 315 318 320 322 323 323 324 324 325 325 325 326 325 324 324
304 304 304 304 303 303 303 304 303 303 303 303 303 303 302 303 303 303 303 303 303 304 304 305 306 307 309 311 313 316 319 321 322 323 324 325 325 325 325 324 323 323
303 303 303 303 303 303 302 303 303 303 303 303 303 303 302 301 301 302 302 302 302 302 303 304 304 305 306 307 309 312 315 318 320 321 322 324 324 324 324 324 323 322
302 303 302 302 302 302 302 302 302 302 302 302 302 302 302 301 301 301 301 301 301 301 301 302 303 304 304 305 307 308 311 313 315 317 319 321 322 322 322 323 323 322
302 302 302 302 301 301 301 301 301 301 301 301 302 302 302 301 300 300 300 300 300 300 301 301 302 302 303 304 305 306 308 309 311 313 315 317 319 320 320 321 322 322
302 301 301 301 301 301 301 300 300 300 300 300 301 301 301 300 300 300 300 300 299 300 300 300 301 301 302 303 303 304 305 306 308 310 312 313 315 317 318 319 321 322
Wind_Speed
8 8 8 8 9 10 11 11 11 12 13 14 16 16 18 19 21 22 24 25 27 29 29 28 28 28 26 26 25 25 26 25 24 22 21 23 25 26 25 25 25 24
9 8 9 9 10 10 11 12 12 12 13 13 14 16 18 19 20 22 24 24 26 28 29 30 30 30 30 29 27 25 26 27 25 22 21 21 24 26 25 25 25 25
10 10 10 10 12 12 12 12 11 11 12 13 14 16 19 19 20 22 24 25 26 28 29 30 32 32 32 31 30 27 27 28 26 23 22 21 22 24 25 25 25 25
12 12 12 12 13 14 15 14 12 11 12 13 14 16 18 19 19 21 23 25 27 28 29 30 31 31 31 31 30 27 27 28 27 24 23 23 22 23 25 25 25 24
15 14 13 14 15 15 15 15 14 14 14 15 16 17 17 17 19 21 23 26 28 31 31 31 31 31 31 31 29 28 28 28 27 26 25 24 23 23 24 25 24 22
18 16 16 16 16 16 16 16 17 16 17 18 18 17 15 16 19 22 24 26 29 31 33 33 33 31 30 29 29 30 30 28 27 27 27 25 22 22 24 24 23 22
19 19 20 20 19 18 17 17 17 18 18 19 20 19 16 15 19 23 25 27 28 31 33 33 32 29 26 25 27 28 27 27 27 26 26 25 23 24 24 24 23 24
20 20 22 23 21 19 18 17 18 18 19 19 19 19 17 16 19 22 24 27 30 33 34 33 29 26 24 23 24 23 23 24 25 24 24 24 24 24 26 25 25 25
21 21 23 24 23 22 21 20 18 18 18 19 19 20 19 18 19 22 25 29 33 34 32 29 24 21 20 19 20 21 22 23 23 22 23 23 23 23 25 25 24 23
22 23 24 25 24 24 24 22 20 19 19 19 19 19 20 20 21 23 25 30 33 30 25 22 18 16 17 18 18 19 20 21 21 20 21 23 22 21 23 25 24 23
22 23 24 26 26 26 25 24 22 20 19 20 19 18 20 21 22 24 24 26 28 23 18 17 15 14 16 17 16 16 17 20 19 18 19 22 21 19 21 23 23 23
22 23 25 26 27 26 26 26 24 22 20 21 20 19 20 21 22 24 23 23 23 19 16 15 14 13 13 14 13 13 15 17 16 16 18 21 20 19 21 22 22 22
22 22 23 24 25 26 26 26 25 23 22 22 22 20 20 20 21 23 23 21 20 15 13 14 14 13 13 15 14 12 12 14 15 15 16 18 19 19 21 22 20 22
21 21 22 22 23 24 25 26 26 24 22 22 23 22 21 21 20 20 20 19 17 13 11 11 12 14 15 16 16 14 12 14 15 15 15 16 17 18 20 21 20 21
22 22 22 23 23 24 25 26 27 25 23 22 24 25 23 22 20 18 18 17 15 13 10 8 10 14 16 16 15 14 14 14 14 15 14 14 14 16 18 20 20 21
23 23 23 24 25 25 25 26 27 27 25 23 24 25 25 24 22 19 17 16 14 14 13 10 9 11 13 14 15 15 15 15 14 14 14 14 14 16 18 19 21 22
24 24 24 24 25 25 25 26 27 27 26 25 25 25 26 26 26 23 20 18 15 14 15 14 12 11 11 13 15 16 16 15 14 14 14 15 15 16 17 18 19 20
25 26 25 25 26 26 26 26 26 27 27 27 27 27 26 26 28 27 24 21 19 17 16 16 16 15 14 13 14 15 15 15 15 15 16 16 16 17 17 18 19 18
24 25 26 27 28 27 27 27 27 28 27 27 27 27 28 28 28 29 28 26 24 22 20 19 18 18 17 15 14 15 16 17 17 17 18 18 17 17 18 19 20 17
23 24 26 27 29 29 29 29 30 30 29 28 26 26 27 27 29 30 28 28 28 27 25 23 21 20 19 18 17 17 17 18 18 19 19 19 18 18 19 21 21 17
24 25 25 26 27 28 29 29 31 32 32 31 28 27 26 25 25 28 29 29 28 28 28 27 25 23 21 20 19 20 19 18 18 18 19 19 19 18 18 19 19 18
25 25 25 26 27 27 28 29 30 31 32 32 31 29 28 26 24 25 27 29 30 29 29 29 28 26 25 22 20 20 20 19 18 17 17 19 19 18 16 16 16 18
24 24 25 26 27 28 28 28 28 29 29 30 30 30 30 30 27 25 25 27 29 30 31 31 31 30 28 27 24 21 19 18 18 17 16 17 18 18 16 15 15 17
23 24 25 26 27 27 27 27 27 28 28 27 27 28 29 31 30 27 26 26 27 29 31 32 33 33 32 30 28 26 22 19 17 17 16 16 15 15 16 16 16 17
23 24 24 25 26 26 26 27 27 28 28 26 26 26 27 30 30 28 28 28 28 29 31 33 34 34 34 33 31 29 27 24 19 15 15 15 13 12 12 13 16 17
22 23 23 24 25 25 26 27 27 27 28 28 26 26 26 28 30 29 27 28 30 31 31 33 34 35 35 35 34 33 31 29 25 20 16 15 14 11 9 8 12 15
Wind_Direction
323 320 324 310 291 274 263 271 288 298 301 300 299 298 295 294 294 294 292 288 288 287 283 280 277 274 272 269 265 261 260 258 256 255 250 239 232 228 230 230 227 224
324 331 341 337 320 294 271 269 275 286 295 298 302 305 303 300 299 301 300 297 295 292 287 282 278 276 273 272 269 263 261 261 258 254 248 239 231 228 228 228 227 227
332 329 331 333 329 318 308 300 289 289 296 301 304 305 307 306 305 305 305 303 301 298 292 285 279 276 274 273 271 265 261 263 262 256 250 244 237 232 229 228 228 229
343 336 333 332 329 324 325 324 315 305 300 298 297 297 302 306 306 307 306 304 303 301 299 293 285 280 278 276 272 264 260 261 260 255 250 249 246 238 232 229 228 228
352 350 343 337 333 330 330 327 323 317 310 304 298 292 296 302 306 308 306 305 305 304 304 300 292 285 281 279 273 263 260 260 258 254 249 249 248 239 232 228 225 225
357 356 354 349 343 339 336 334 332 328 324 320 315 308 303 304 307 308 308 308 307 306 306 303 298 291 285 282 275 265 260 259 255 250 245 244 243 239 236 230 225 224
358 359 0 358 354 348 341 338 337 332 328 328 328 326 323 324 322 316 311 311 311 309 308 306 300 293 288 286 279 268 261 257 250 245 244 243 240 240 239 235 231 230
2 4 4 1 360 358 350 343 340 336 331 331 333 331 330 332 331 321 314 314 314 311 308 306 301 292 287 285 279 269 263 257 249 244 246 246 242 242 240 236 233 232
5 8 7 2 0 1 357 352 348 344 339 335 334 331 327 325 325 321 320 321 321 317 310 307 302 291 286 284 280 273 264 258 254 252 251 248 246 246 244 241 236 231
8 11 9 3 1 3 2 358 352 349 344 338 335 333 329 327 324 322 325 330 332 328 322 319 310 294 290 291 288 280 267 258 257 256 256 255 251 248 250 249 242 234
13 14 10 5 4 5 3 359 356 354 351 344 339 337 333 330 328 329 335 341 344 345 343 336 328 316 310 305 296 284 272 264 257 253 257 263 264 261 262 260 251 240
17 16 12 9 7 6 4 2 359 358 357 352 346 342 337 332 331 337 346 347 347 357 0 345 335 328 319 312 305 295 282 271 264 262 263 265 270 270 267 264 258 249
19 17 14 11 8 7 6 5 3 1 3 1 356 349 344 340 337 340 348 346 342 352 0 347 338 331 319 313 310 304 291 280 278 281 277 272 272 272 269 266 259 255
19 17 15 13 11 10 8 7 6 6 8 7 4 359 352 351 349 344 343 340 337 346 356 350 344 342 333 320 308 295 283 279 280 282 282 279 278 276 274 271 264 259
18 18 16 14 14 13 10 9 9 9 11 12 13 11 5 359 356 352 343 334 328 333 348 352 344 340 335 324 310 297 284 277 276 280 281 282 283 281 278 276 272 265
19 19 17 16 16 16 14 12 11 11 12 14 16 17 16 10 2 357 351 342 329 320 325 332 331 326 320 314 308 301 293 283 279 280 281 283 289 290 286 281 276 270
19 20 19 18 17 16 15 15 14 13 14 14 12 13 19 20 16 9 0 354 346 330 319 319 321 316 306 301 301 300 296 287 282 283 284 286 289 291 291 285 277 272
19 19 20 18 18 18 17 16 16 14 15 17 13 9 11 16 20 20 15 7 360 350 336 325 318 311 302 293 289 289 287 282 280 282 282 282 283 286 289 288 281 274
21 21 19 17 17 18 18 19 18 17 17 18 15 11 8 8 10 15 20 20 14 7 359 347 332 318 309 298 288 282 279 276 277 278 278 279 281 284 286 287 288 284
23 23 21 17 16 16 17 18 19 19 18 18 16 14 12 10 7 4 8 16 18 15 11 5 354 340 325 309 296 287 281 277 275 274 276 279 280 283 285 287 292 294
23 23 23 20 17 17 17 15 14 15 16 16 16 14 13 14 12 4 0 2 7 10 11 10 7 1 348 329 311 298 288 282 278 272 270 273 275 280 286 290 292 294
24 24 24 22 20 20 19 16 14 14 14 12 12 12 12 13 15 11 5 0 358 360 4 7 7 6 2 353 338 317 299 289 285 279 271 268 270 274 282 288 288 290
25 24 24 23 21 20 20 19 16 15 14 12 10 9 9 10 13 13 11 6 1 358 359 2 4 5 4 3 360 348 327 305 295 292 285 275 270 273 276 275 275 281
25 25 24 24 22 20 19 19 18 16 15 15 12 8 6 7 10 11 10 9 7 4 2 2 3 5 4 4 5 4 357 340 320 309 301 290 282 281 279 271 269 276
25 26 25 23 22 20 17 17 19 17 17 17 15 12 8 6 7 9 10 9 9 10 9 7 7 7 6 6 7 9 10 6 354 336 318 307 298 288 282 271 266 271
23 25 26 24 22 21 18 18 19 18 17 17 17 15 11 6 5 8 11 9 9 12 14 13 12 12 10 8 9 11 13 13 11 6 352 335 319 301 284 261 255 262